Location: Jabiru
(12.6667°S, 132.8333°E)
Time: 08:03:06
(UTC+09:30)

Envisat - Pass Details

Date: 23 October 2019
Orbit: 764 x 766 km, 98.1° (Epoch: 11 November)

Event Time Altitude Azimuth Distance (km) Brightness Sun altitude
Rises 19:50:12 0° 183° (S) 3,244 6.5 -18.2°
Reaches altitude 10° 19:52:41 10° 191° (SSW) 2,313 5.8 -18.7°
Maximum altitude 19:57:17 35° 256° (WSW) 1,230 4.7 -19.8°
Drops below altitude 10° 20:01:51 10° 320° (NW) 2,295 5.7 -20.9°
Sets 20:04:19 0° 329° (NNW) 3,216 6.4 -21.5°
